SCP
-0 -0 -0 -0 -0 -0 -0 -0 -0 -0 -0 -0 -0 -0 -0 -0 -0 0 -0 0 0 -0 0 -0 0 0 0 0 0 0 0 0 0 0 0 0 -0 -0 -0 -0 0 0 0 0 -0
-0 -0 -0 -0 -0 -0 -0 -0 -0 -0 -0 -0 -0 -0 -0 -0 0 -0 -0 -0 0 -0 -0 -0 -0 -0 0 0 -0 -0 -0 0 0 0 0 0 -0 0 -0 -0 0 -0 -0 -0 -0
-0 -0 -0 -0 -0 -0 -0 -0 -0 -0 -0 -0 -0 0 -0 -0 0 0 0 -0 0 0 0 0 0 0 0 0 0 0 0 0 0 -0 0 -0 0 -0 0 -0 0 -0 -0 -0 -0
-0 -0 -0 -0 -0 -0 -0 -0 -0 -0 -0 -0 0 0 -0 -0 0 0 0 0 0 0 0 0 0 -0 0 -0 -0 0 0 0 -0 0 0 0 0 0 0 -0 -0 -0 -0 -0 -0
-0 -0 -0 -0 -0 -0 -0 -0 -0 -0 -0 0 0 -0 -0 0 0 -0 -0 0 0 0 0 0 0 -0 0 0 0 -0 -0 -0 -0 0 0 0 0 0 0 -0 -0 -0 -0 -0 -0
-0 -0 -0 -0 -0 -0 -0 -0 -0 -0 0 0 -0 -0 -0 0 -0 0 0 0 0 0 0 0 0 0 -0 0 0 0 -0 -0 0 0 -0 -0 0 0 0 -0 -0 -0 -0 -0 -0
-0 -0 -0 -0 -0 -0 -0 -0 -0 -0 0 -0 -0 -0 -0 -0 0 0 0 0 0 0 0 0 0 0 0 0 0 0 -0 0 0 0 -0 0 0 0 0 -0 -0 -0 -0 -0 -0
-0 -0 -0 -0 -0 -0 -0 -0 -0 0 0 -0 -0 -0 0 0 0 0 0 0 0 0 0 0 0 0 0 0 0 -0 -0 0 -0 -0 -0 0 0 0 0 -0 -0 -0 -0 -0 0
-0 -0 -0 -0 -0 -0 -0 -0 0 0 0 0 -0 -0 -0 0 -0 -0 0 0 0 0 0 0 0 0 0 0 0 0 0 0 0 -0 0 0 -0 0 0 -0 -0 -0 -0 -0 -0
-0 -0 -0 -0 -0 -0 -0 -0 0 0 0 -0 -0 -0 -0 -0 -0 -0 0 0 0 0 0 0 0 0 0 0 0 0 0 0 0 -0 0 0 -0 0 -0 -0 0 -0 0 -0 -0
-0 -0 -0 -0 -0 -0 0 0 -0 -0 -0 -0 0 0 -0 -0 -0 -0 0 0 0 0 0 0 0 0 0 0 0 0 0 0 0 0 0 0 -0 0 0 0 -0 -0 -0 -0 -0
-0 -0 -0 -0 -0 -0 0 0 -0 0 -0 -0 -0 -0 -0 -0 0 -0 0 0 0 0 0 0 0 0 0 0 0 0 0 0 0 0 0 -0 -0 -0 -0 -0 -0 -0 -0 -0 0
0 0 -0 -0 -0 0 0 -0 0 0 -0 -0 -0 -0 -0 0 -0 -0 0 -0 0 0 0 0 0 0 0 0 0 0 0 0 0 0 -0 0 0 0 0 0 -0 -0 -0 -0 -0
0 0 0 -0 0 0 0 0 0 0 0 -0 -0 -0 -0 -0 -0 -0 0 -0 -0 0 0 0 0 0 0 0 0 0 0 0 0 0 0 0 0 0 -0 0 -0 -0 -0 -0 -0
0 0 0 0 0 0 0 0 -0 0 0 -0 -0 -0 -0 0 -0 -0 0 0 0 0 0 0 0 0 0 0 0 0 0 0 0 0 0 0 0 0 0 -0 -0 0 0 -0 -0
0 0 0 0 0 0 0 0 0 0 0 0 -0 -0 -0 -0 -0 0 0 0 -0 0 0 0 0 0 0 0 0 0 0 0 0 0 0 0 0 0 0 -0 -0 -0 -0 0 -0
0 0 0 0 0 0 0 0 0 0 0 0 0 -0 -0 -0 -0 -0 0 -0 -0 0 0 0 0 0 0 0 0 0 0 0 0 0 0 0 0 0 0 -0 -0 -0 -0 -0 -0
0 0 0 0 0 0 0 0 0 0 0 0 -0 -0 -0 -0 -0 0 -0 -0 -0 -0 0 0 0 0 0 0 0 0 0 0 0 0 0 0 0 0 0 -0 -0 -0 -0 -0 0
0 0 0 0 0 0 0 0 0 0 0 0 0 0 -0 -0 -0 0 0 -0 -0 0 0 0 0 0 0 0 0 0 0 0 0 0 0 0 0 0 0 0 0 0 -0 0 0
0 0 0 0 0 0 0 0 0 0 0 0 0 0 0 0 0 0 0 0 0 -0 0 -0 0 0 0 0 0 0 0 0 0 0 0 0 0 0 0 -0 -0 -0 -0 -0 0
0 0 0 0 0 0 0 0 0 0 0 0 0 0 0 0 0 0 0 0 0 0 0 0 0 0 0 0 0 0 0 0 0 0 0 0 0 0 0 0 0 0 0 -0 0
0 0 0 0 0 0 0 0 0 0 0 0 -0 0 0 0 0 0 0 0 0 0 0 0 0 0 0 0 0 0 0 0 0 0 0 0 0 0 0 0 0 -0 0 0 0
0 0 0 0 0 0 0 0 0 0 0 -0 -0 0 0 0 0 0 0 0 0 0 0 0 0 0 0 0 0 0 0 0 0 0 0 0 0 0 0 0 0 0 -0 -0 0
0 0 0 0 0 0 0 0 0 0 0 0 -0 0 0 0 0 0 0 0 0 0 0 0 0 0 0 0 0 0 0 0 0 0 0 0 0 0 0 0 0 0 -0 -0 -0
0 0 0 0 0 0 0 0 0 0 0 0 0 0 0 0 0 0 0 0 0 0 0 0 0 0 0 0 0 0 0 0 0 0 0 0 0 0 0 0 0 0 0 -0 -0
0 0 0 0 0 0 0 0 0 0 0 0 0 0 0 0 0 0 0 0 0 0 0 0 0 0 0 0 0 0 0 0 0 0 0 0 0 0 0 0 0 0 0 0 0
0 0 0 0 0 0 0 0 0 0 0 0 0 0 0 0 0 0 0 0 0 0 0 0 0 0 0 0 0 0 0 0 0 0 0 0 0 0 0 0 0 -0 -0 0 0
Wind_Speed_500mb
23 22 21 21 20 19 19 20 23 25 27 23 17 11 8 6 8 14 16 11 22 25 24 22 18 7 4 7 9 6 8 3 5 9 7 6 5 4 4 34 8 10 20 46 48
26 25 23 22 21 18 17 20 24 28 27 19 11 8 5 3 4 8 12 23 28 20 23 21 18 11 3 2 5 7 6 10 11 11 12 18 16 5 5 29 11 19 37 51 49
29 28 26 24 21 18 17 20 26 29 24 14 8 8 8 6 12 10 14 26 27 22 22 22 16 6 3 2 2 1 4 8 12 22 15 10 1 10 5 8 19 47 59 55 51
32 31 29 25 21 17 16 20 24 26 20 16 16 14 10 7 8 10 9 15 20 20 24 25 13 6 4 1 4 2 4 6 19 22 12 4 2 12 13 1 24 56 63 57 53
37 34 31 28 22 16 15 17 20 19 17 16 16 17 10 4 6 3 5 15 21 21 24 24 15 5 4 5 6 4 5 12 23 27 20 16 5 6 18 12 29 56 61 54 51
40 37 33 29 22 16 14 15 16 14 13 14 15 18 8 3 6 8 7 20 27 25 29 25 7 2 3 9 5 4 17 23 15 10 12 12 3 10 9 30 49 62 62 56 52
42 40 37 32 23 16 14 15 14 11 10 11 15 20 4 2 4 5 9 13 25 26 31 15 1 4 7 11 14 17 11 11 14 18 9 23 5 11 4 38 54 62 64 60 56
43 43 39 32 24 16 15 13 12 11 10 13 17 17 5 4 3 2 11 20 22 23 19 6 7 0 6 27 6 3 7 6 6 15 14 13 8 13 17 40 48 56 62 61 59
43 41 39 33 22 16 14 16 16 13 12 15 18 12 4 6 9 7 7 10 14 14 10 6 1 8 13 9 7 6 3 4 5 15 8 9 7 10 31 41 43 47 55 59 58
47 42 39 34 22 14 17 23 18 12 11 17 8 3 2 6 12 13 9 9 4 8 6 4 6 7 7 7 7 8 6 6 8 12 10 10 13 9 28 45 41 51 54 59 65
49 45 37 33 23 12 16 14 16 6 30 20 13 13 23 4 19 15 11 10 11 6 4 6 8 11 21 11 5 6 4 7 6 16 9 14 10 11 16 20 36 45 52 65 68
50 47 40 32 22 12 9 8 12 18 19 28 30 29 23 10 10 19 19 11 8 5 4 12 7 12 12 8 4 1 6 9 5 14 8 15 21 10 21 21 45 54 57 65 68
51 48 43 33 19 10 7 3 16 35 6 14 7 11 9 23 10 23 25 13 7 8 8 12 10 14 11 7 9 7 9 9 7 10 7 4 5 9 4 10 35 47 60 60 78
51 50 46 34 13 10 4 3 24 21 8 11 6 7 18 12 5 19 31 11 3 17 14 10 8 8 10 10 13 6 16 16 19 7 5 5 6 3 4 10 17 39 47 56 63
50 52 45 37 27 15 7 11 20 3 5 4 6 6 19 14 5 13 37 29 8 11 10 13 8 9 6 16 13 20 5 9 8 6 6 3 5 6 3 4 14 23 41 49 61
51 53 50 41 27 13 13 6 4 10 10 4 11 9 10 1 4 8 12 13 3 6 4 13 3 12 16 5 12 10 14 15 8 6 5 6 9 8 5 8 8 14 45 44 58
54 50 53 39 20 6 13 6 9 6 8 3 6 6 7 9 7 8 11 5 8 5 5 7 7 6 6 11 8 11 14 6 8 8 10 4 6 14 8 11 13 17 33 59 65
58 51 49 28 21 20 16 9 8 8 11 9 4 3 12 11 7 9 9 7 10 5 5 5 10 7 2 11 14 4 14 11 10 8 9 4 8 10 8 9 16 25 27 39 68
61 52 17 17 15 30 22 4 15 12 5 9 5 6 6 6 6 7 13 11 14 19 13 8 8 6 3 6 11 8 5 7 14 6 6 5 8 9 7 8 13 17 13 14 45
61 43 21 16 25 40 7 10 8 7 7 7 5 1 11 9 11 15 12 8 11 23 8 7 3 6 5 10 16 8 9 6 6 8 6 8 8 10 11 13 8 11 14 13 19
44 16 27 16 35 20 8 11 9 14 5 6 1 6 6 8 11 11 12 10 13 10 9 9 7 8 2 5 12 3 3 13 11 6 11 4 12 8 13 13 9 14 18 19 15
24 6 13 16 5 3 5 9 4 5 4 8 6 11 7 4 7 8 19 15 22 28 19 9 11 5 2 2 4 4 9 10 9 7 3 7 11 5 12 16 15 20 15 10 14
33 11 6 12 2 5 12 7 7 7 12 6 4 11 5 2 8 13 11 8 28 11 18 15 3 6 13 11 4 1 4 9 11 7 10 10 11 7 10 10 11 11 7 8 19
14 7 7 8 10 4 8 7 6 7 7 8 9 9 4 6 11 10 6 5 18 9 23 16 7 13 14 12 8 7 7 6 9 7 10 11 9 10 12 14 12 7 2 5 15
9 3 4 7 5 6 3 5 6 10 8 8 5 11 3 8 5 10 9 3 9 20 9 10 8 6 6 5 5 8 11 14 10 10 11 9 15 10 15 23 32 15 5 1 21
8 7 9 9 14 6 2 2 1 9 4 9 5 13 9 12 15 11 14 7 11 5 5 3 5 7 2 4 14 9 11 13 2 5 6 4 11 9 3 22 24 26 15 12 3
8 8 6 7 6 3 6 1 4 14 16 25 11 9 12 11 29 48 44 26 21 20 9 9 13 7 7 2 10 4 13 12 8 7 12 11 15 11 6 10 14 23 21 18 15
Wind_Direction_500mb
1 357 355 353 349 347 348 351 352 351 345 337 327 317 307 278 232 219 218 170 160 146 156 159 149 136 60 77 62 93 77 122 169 140 163 214 262 256 242 151 137 194 166 160 158
2 359 355 351 347 345 347 347 349 348 345 339 334 331 337 299 234 219 188 168 156 149 166 162 153 155 83 71 45 58 94 172 182 139 167 194 218 294 144 151 80 114 148 158 160
6 2 358 352 347 344 345 348 350 352 353 3 23 41 55 86 98 49 168 172 170 152 156 169 159 163 113 109 51 334 121 148 158 168 175 164 87 345 287 185 180 154 155 165 164
11 5 1 355 349 346 347 350 356 4 19 56 64 47 43 80 112 102 97 163 177 171 163 169 184 159 116 156 129 64 49 149 145 149 121 107 91 350 286 241 198 167 162 167 172
12 9 4 359 353 349 348 355 2 14 35 44 37 25 18 54 80 34 253 201 193 179 171 161 182 166 153 138 103 78 47 99 131 139 142 198 147 278 293 236 179 169 166 175 178
10 9 6 4 0 354 348 353 3 8 15 21 17 6 25 51 28 348 247 205 195 184 168 167 158 284 105 115 21 106 101 109 124 156 147 142 238 329 85 176 172 176 176 182 186
5 5 4 5 4 354 346 346 356 359 356 357 351 347 316 38 3 26 105 166 175 175 171 168 190 25 138 115 141 131 102 109 124 150 136 150 253 234 119 174 164 176 184 188 192
359 359 359 1 2 354 343 346 343 332 327 329 334 334 295 235 253 162 87 120 141 158 156 195 309 5 110 125 85 143 125 123 173 156 159 172 271 212 184 164 163 179 189 197 200
357 355 354 354 356 350 339 336 322 306 304 313 316 328 354 324 158 180 168 112 133 153 169 245 20 102 117 103 43 8 310 139 176 196 135 195 263 156 174 186 178 186 195 201 207
354 353 350 346 345 342 337 345 331 304 281 306 300 338 117 24 162 151 162 178 160 168 157 164 114 75 45 79 193 210 250 164 179 193 167 194 264 134 187 191 183 187 200 205 211
350 351 349 340 335 323 349 357 354 347 309 255 253 271 293 134 189 177 204 181 164 156 137 41 84 195 204 187 137 167 214 267 135 167 134 210 275 214 188 203 185 187 196 207 216
346 347 347 339 332 293 2 36 52 344 303 293 268 258 253 188 165 202 197 156 158 152 85 21 240 213 169 191 165 220 301 292 81 145 145 174 231 225 183 207 205 185 196 203 209
344 343 343 341 328 264 336 37 340 332 281 293 251 239 223 201 210 195 191 176 130 132 169 162 241 143 163 176 162 195 198 219 170 143 249 117 289 188 225 223 213 212 214 203 208
342 340 339 344 327 293 291 287 334 328 50 276 246 215 172 168 238 200 191 167 162 191 164 229 261 197 173 207 150 261 206 218 136 120 172 135 268 24 251 225 221 216 210 204 203
338 336 334 332 312 300 249 304 329 13 3 205 194 183 174 163 152 186 192 202 197 184 120 254 190 178 179 217 154 228 140 98 105 113 91 99 69 261 10 225 260 248 220 214 209
335 331 327 322 311 282 239 261 307 40 256 301 161 164 121 132 144 121 162 191 240 179 228 240 251 175 206 127 180 138 75 51 62 83 32 242 135 278 268 241 273 264 244 226 215
331 327 320 311 295 223 176 166 45 159 318 247 224 165 159 197 194 165 158 173 191 112 298 317 216 271 163 89 44 82 69 9 8 18 222 332 76 237 239 237 257 275 274 238 223
329 327 319 306 253 209 183 68 182 235 249 306 20 77 182 159 228 161 131 212 222 130 119 144 329 183 208 163 171 158 146 150 185 193 244 43 226 274 211 259 286 297 300 237 225
332 332 341 329 213 178 175 127 204 208 247 331 6 148 254 209 187 152 196 206 213 174 174 139 283 317 331 125 118 175 153 162 101 359 67 249 273 292 206 283 291 310 325 224 225
337 336 338 324 177 172 104 228 224 237 329 26 73 350 204 223 172 169 182 215 221 185 179 182 12 7 14 80 42 114 144 88 22 133 224 289 272 238 211 243 291 315 313 307 238
340 347 7 107 145 167 168 220 238 259 324 66 153 302 306 333 196 197 202 260 205 161 125 122 93 296 81 35 165 87 66 53 106 106 155 201 264 217 194 192 230 282 318 305 270
352 360 23 149 68 32 171 196 231 278 289 293 160 214 211 317 299 236 203 219 187 145 162 180 134 144 147 311 320 134 144 136 119 216 102 146 272 249 184 189 216 261 280 322 304
338 306 21 197 111 314 306 291 246 230 243 211 249 224 176 270 311 210 221 222 160 139 159 181 43 65 356 356 360 61 109 100 106 94 186 141 262 178 189 221 251 281 245 336 8
342 353 353 67 73 76 9 287 281 308 274 272 234 219 220 263 227 281 253 171 170 131 137 117 114 149 180 199 153 158 155 155 110 119 167 225 262 229 218 232 229 202 254 341 21
346 352 12 319 345 351 305 298 307 357 323 305 333 95 322 276 289 221 252 119 38 136 79 112 139 149 180 176 175 184 170 179 185 170 156 248 206 266 203 209 220 211 192 60 54
339 0 344 289 302 321 284 204 46 336 276 287 189 323 231 224 210 231 189 182 180 209 116 4 146 155 105 30 171 187 198 183 173 146 306 200 259 218 221 193 209 226 255 265 182
332 315 303 291 324 0 234 347 317 331 273 257 348 338 292 232 297 264 256 275 192 157 145 112 133 108 200 23 124 18 207 186 189 186 157 185 228 160 125 166 216 269 266 251 221
Wind_Speed_850mb
23 22 21 21 20 19 19 20 23 25 27 23 17 11 8 6 8 14 16 11 22 25 24 22 18 7 4 7 9 6 8 3 5 9 7 6 5 4 4 34 8 10 20 46 48
26 25 23 22 21 18 17 20 24 28 27 19 11 8 5 3 4 8 12 23 28 20 23 21 18 11 3 2 5 7 6 10 11 11 12 18 16 5 5 29 11 19 37 51 49
29 28 26 24 21 18 17 20 26 29 24 14 8 8 8 6 12 10 14 26 27 22 22 22 16 6 3 2 2 1 4 8 12 22 15 10 1 10 5 8 19 47 59 55 51
32 31 29 25 21 17 16 20 24 26 20 16 16 14 10 7 8 10 9 15 20 20 24 25 13 6 4 1 4 2 4 6 19 22 12 4 2 12 13 1 24 56 63 57 53
37 34 31 28 22 16 15 17 20 19 17 16 16 17 10 4 6 3 5 15 21 21 24 24 15 5 4 5 6 4 5 12 23 27 20 16 5 6 18 12 29 56 61 54 51
40 37 33 29 22 16 14 15 16 14 13 14 15 18 8 3 6 8 7 20 27 25 29 25 7 2 3 9 5 4 17 23 15 10 12 12 3 10 9 30 49 62 62 56 52
42 40 37 32 23 16 14 15 14 11 10 11 15 20 4 2 4 5 9 13 25 26 31 15 1 4 7 11 14 17 11 11 14 18 9 23 5 11 4 38 54 62 64 60 56
43 43 39 32 24 16 15 13 12 11 10 13 17 17 5 4 3 2 11 20 22 23 19 6 7 0 6 27 6 3 7 6 6 15 14 13 8 13 17 40 48 56 62 61 59
43 41 39 33 22 16 14 16 16 13 12 15 18 12 4 6 9 7 7 10 14 14 10 6 1 8 13 9 7 6 3 4 5 15 8 9 7 10 31 41 43 47 55 59 58
47 42 39 34 22 14 17 23 18 12 11 17 8 3 2 6 12 13 9 9 4 8 6 4 6 7 7 7 7 8 6 6 8 12 10 10 13 9 28 45 41 51 54 59 65
49 45 37 33 23 12 16 14 16 6 30 20 13 13 23 4 19 15 11 10 11 6 4 6 8 11 21 11 5 6 4 7 6 16 9 14 10 11 16 20 36 45 52 65 68
50 47 40 32 22 12 9 8 12 18 19 28 30 29 23 10 10 19 19 11 8 5 4 12 7 12 12 8 4 1 6 9 5 14 8 15 21 10 21 21 45 54 57 65 68
51 48 43 33 19 10 7 3 16 35 6 14 7 11 9 23 10 23 25 13 7 8 8 12 10 14 11 7 9 7 9 9 7 10 7 4 5 9 4 10 35 47 60 60 78
51 50 46 34 13 10 4 3 24 21 8 11 6 7 18 12 5 19 31 11 3 17 14 10 8 8 10 10 13 6 16 16 19 7 5 5 6 3 4 10 17 39 47 56 63
50 52 45 37 27 15 7 11 20 3 5 4 6 6 19 14 5 13 37 29 8 11 10 13 8 9 6 16 13 20 5 9 8 6 6 3 5 6 3 4 14 23 41 49 61
51 53 50 41 27 13 13 6 4 10 10 4 11 9 10 1 4 8 12 13 3 6 4 13 3 12 16 5 12 10 14 15 8 6 5 6 9 8 5 8 8 14 45 44 58
54 50 53 39 20 6 13 6 9 6 8 3 6 6 7 9 7 8 11 5 8 5 5 7 7 6 6 11 8 11 14 6 8 8 10 4 6 14 8 11 13 17 33 59 65
58 51 49 28 21 20 16 9 8 8 11 9 4 3 12 11 7 9 9 7 10 5 5 5 10 7 2 11 14 4 14 11 10 8 9 4 8 10 8 9 16 25 27 39 68
61 52 17 17 15 30 22 4 15 12 5 9 5 6 6 6 6 7 13 11 14 19 13 8 8 6 3 6 11 8 5 7 14 6 6 5 8 9 7 8 13 17 13 14 45
61 43 21 16 25 40 7 10 8 7 7 7 5 1 11 9 11 15 12 8 11 23 8 7 3 6 5 10 16 8 9 6 6 8 6 8 8 10 11 13 8 11 14 13 19
44 16 27 16 35 20 8 11 9 14 5 6 1 6 6 8 11 11 12 10 13 10 9 9 7 8 2 5 12 3 3 13 11 6 11 4 12 8 13 13 9 14 18 19 15
24 6 13 16 5 3 5 9 4 5 4 8 6 11 7 4 7 8 19 15 22 28 19 9 11 5 2 2 4 4 9 10 9 7 3 7 11 5 12 16 15 20 15 10 14
33 11 6 12 2 5 12 7 7 7 12 6 4 11 5 2 8 13 11 8 28 11 18 15 3 6 13 11 4 1 4 9 11 7 10 10 11 7 10 10 11 11 7 8 19
14 7 7 8 10 4 8 7 6 7 7 8 9 9 4 6 11 10 6 5 18 9 23 16 7 13 14 12 8 7 7 6 9 7 10 11 9 10 12 14 12 7 2 5 15
9 3 4 7 5 6 3 5 6 10 8 8 5 11 3 8 5 10 9 3 9 20 9 10 8 6 6 5 5 8 11 14 10 10 11 9 15 10 15 23 32 15 5 1 21
8 7 9 9 14 6 2 2 1 9 4 9 5 13 9 12 15 11 14 7 11 5 5 3 5 7 2 4 14 9 11 13 2 5 6 4 11 9 3 22 24 26 15 12 3
8 8 6 7 6 3 6 1 4 14 16 25 11 9 12 11 29 48 44 26 21 20 9 9 13 7 7 2 10 4 13 12 8 7 12 11 15 11 6 10 14 23 21 18 15
Wind_Direction_850mb
1 357 355 353 349 347 348 351 352 351 345 337 327 317 307 278 232 219 218 170 160 146 156 159 149 136 60 77 62 93 77 122 169 140 163 214 262 256 242 151 137 194 166 160 158
2 359 355 351 347 345 347 347 349 348 345 339 334 331 337 299 234 219 188 168 156 149 166 162 153 155 83 71 45 58 94 172 182 139 167 194 218 294 144 151 80 114 148 158 160
6 2 358 352 347 344 345 348 350 352 353 3 23 41 55 86 98 49 168 172 170 152 156 169 159 163 113 109 51 334 121 148 158 168 175 164 87 345 287 185 180 154 155 165 164
11 5 1 355 349 346 347 350 356 4 19 56 64 47 43 80 112 102 97 163 177 171 163 169 184 159 116 156 129 64 49 149 145 149 121 107 91 350 286 241 198 167 162 167 172
12 9 4 359 353 349 348 355 2 14 35 44 37 25 18 54 80 34 253 201 193 179 171 161 182 166 153 138 103 78 47 99 131 139 142 198 147 278 293 236 179 169 166 175 178
10 9 6 4 0 354 348 353 3 8 15 21 17 6 25 51 28 348 247 205 195 184 168 167 158 284 105 115 21 106 101 109 124 156 147 142 238 329 85 176 172 176 176 182 186
5 5 4 5 4 354 346 346 356 359 356 357 351 347 316 38 3 26 105 166 175 175 171 168 190 25 138 115 141 131 102 109 124 150 136 150 253 234 119 174 164 176 184 188 192
359 359 359 1 2 354 343 346 343 332 327 329 334 334 295 235 253 162 87 120 141 158 156 195 309 5 110 125 85 143 125 123 173 156 159 172 271 212 184 164 163 179 189 197 200
357 355 354 354 356 350 339 336 322 306 304 313 316 328 354 324 158 180 168 112 133 153 169 245 20 102 117 103 43 8 310 139 176 196 135 195 263 156 174 186 178 186 195 201 207
354 353 350 346 345 342 337 345 331 304 281 306 300 338 117 24 162 151 162 178 160 168 157 164 114 75 45 79 193 210 250 164 179 193 167 194 264 134 187 191 183 187 200 205 211
350 351 349 340 335 323 349 357 354 347 309 255 253 271 293 134 189 177 204 181 164 156 137 41 84 195 204 187 137 167 214 267 135 167 134 210 275 214 188 203 185 187 196 207 216
346 347 347 339 332 293 2 36 52 344 303 293 268 258 253 188 165 202 197 156 158 152 85 21 240 213 169 191 165 220 301 292 81 145 145 174 231 225 183 207 205 185 196 203 209
344 343 343 341 328 264 336 37 340 332 281 293 251 239 223 201 210 195 191 176 130 132 169 162 241 143 163 176 162 195 198 219 170 143 249 117 289 188 225 223 213 212 214 203 208
342 340 339 344 327 293 291 287 334 328 50 276 246 215 172 168 238 200 191 167 162 191 164 229 261 197 173 207 150 261 206 218 136 120 172 135 268 24 251 225 221 216 210 204 203
338 336 334 332 312 300 249 304 329 13 3 205 194 183 174 163 152 186 192 202 197 184 120 254 190 178 179 217 154 228 140 98 105 113 91 99 69 261 10 225 260 248 220 214 209
335 331 327 322 311 282 239 261 307 40 256 301 161 164 121 132 144 121 162 191 240 179 228 240 251 175 206 127 180 138 75 51 62 83 32 242 135 278 268 241 273 264 244 226 215
331 327 320 311 295 223 176 166 45 159 318 247 224 165 159 197 194 165 158 173 191 112 298 317 216 271 163 89 44 82 69 9 8 18 222 332 76 237 239 237 257 275 274 238 223
329 327 319 306 253 209 183 68 182 235 249 306 20 77 182 159 228 161 131 212 222 130 119 144 329 183 208 163 171 158 146 150 185 193 244 43 226 274 211 259 286 297 300 237 225
332 332 341 329 213 178 175 127 204 208 247 331 6 148 254 209 187 152 196 206 213 174 174 139 283 317 331 125 118 175 153 162 101 359 67 249 273 292 206 283 291 310 325 224 225
337 336 338 324 177 172 104 228 224 237 329 26 73 350 204 223 172 169 182 215 221 185 179 182 12 7 14 80 42 114 144 88 22 133 224 289 272 238 211 243 291 315 313 307 238
340 347 7 107 145 167 168 220 238 259 324 66 153 302 306 333 196 197 202 260 205 161 125 122 93 296 81 35 165 87 66 53 106 106 155 201 264 217 194 192 230 282 318 305 270
352 360 23 149 68 32 171 196 231 278 289 293 160 214 211 317 299 236 203 219 187 145 162 180 134 144 147 311 320 134 144 136 119 216 102 146 272 249 184 189 216 261 280 322 304
338 306 21 197 111 314 306 291 246 230 243 211 249 224 176 270 311 210 221 222 160 139 159 181 43 65 356 356 360 61 109 100 106 94 186 141 262 178 189 221 251 281 245 336 8
342 353 353 67 73 76 9 287 281 308 274 272 234 219 220 263 227 281 253 171 170 131 137 117 114 149 180 199 153 158 155 155 110 119 167 225 262 229 218 232 229 202 254 341 21
346 352 12 319 345 351 305 298 307 357 323 305 333 95 322 276 289 221 252 119 38 136 79 112 139 149 180 176 175 184 170 179 185 170 156 248 206 266 203 209 220 211 192 60 54
339 0 344 289 302 321 284 204 46 336 276 287 189 323 231 224 210 231 189 182 180 209 116 4 146 155 105 30 171 187 198 183 173 146 306 200 259 218 221 193 209 226 255 265 182
332 315 303 291 324 0 234 347 317 331 273 257 348 338 292 232 297 264 256 275 192 157 145 112 133 108 200 23 124 18 207 186 189 186 157 185 228 160 125 166 216 269 266 251 221